This is the latest recevied weather packets stored in our database for station/object SP4IM-13. If no packets are shown the sender has not sent any weather packets the latest 10 day(s).
| Time | Temp. | Humidity | Pressure | Rain* | Wind** | Luminosity | Snow |
|---|---|---|---|---|---|---|---|
| 1777261803 | 1.67° C | 63% | 1017 hPa | - | - | - | - |
| 1777261202 | 1.11° C | 64% | 1017 hPa | - | - | - | - |
| 1777260605 | 1.11° C | 64% | 1017 hPa | - | - | - | - |
| 1777260006 | 1.11° C | 65% | 1017 hPa | - | - | - | - |
| 1777259402 | 1.11° C | 65% | 1017 hPa | - | - | - | - |
| 1777255803 | 0.56° C | 70% | 1017 hPa | - | - | - | - |
| 1777233003 | 3.33° C | 66% | 1018 hPa | - | - | - | - |
| 1777216802 | 5° C | 68% | 1015 hPa | - | - | - | - |
| 1777216202 | 5° C | 72% | 1015 hPa | - | - | - | - |
| 1777213202 | 5.56° C | 70% | 1014 hPa | - | - | - | - |
| 1777212003 | 5° C | 67% | 1013 hPa | - | - | - | - |
| 1777203002 | 5° C | 68% | 1012 hPa | - | - | - | - |
| 1777202402 | 5.56° C | 72% | 1011 hPa | - | - | - | - |
| 1777199402 | 5° C | 65% | 1010 hPa | - | - | - | - |
| 1777196402 | 3.33° C | 78% | 1010 hPa | - | - | - | - |
| 1777195802 | 3.33° C | 80% | 1010 hPa | - | - | - | - |
| 1777195202 | 3.89° C | 80% | 1010 hPa | - | - | - | - |
| 1777194603 | 3.33° C | 79% | 1010 hPa | - | - | - | - |
| 1777192802 | 5° C | 71% | 1009 hPa | - | - | - | - |
| 1777191603 | 5° C | 73% | 1009 hPa | - | - | - | - |
| 1777191002 | 5° C | 71% | 1009 hPa | - | - | - | - |
| 1777190402 | 6.11° C | 66% | 1009 hPa | - | - | - | - |
| 1777189805 | 5° C | 64% | 1009 hPa | - | - | - | - |
| 1777189205 | 5° C | 57% | 1008 hPa | - | - | - | - |
| 1777188605 | 5° C | 60% | 1008 hPa | - | - | - | - |
* Rain since midnight (hover to see other rain measurements)
** Current wind speed in m/s (hover to see current wind gust speed)